Location: Norton
(51.3000°N, 0.8167°E)
Time: 13:18:48
(UTC+00:00)

Cosmos 2154 Rocket - Pass Details

Date: 03 March 2021
Orbit: 966 x 996 km, 82.9° (Epoch: 10 April)

Event Time Altitude Azimuth Distance (km) Brightness Sun altitude
Rises 19:20:08 0° 199° (SSW) 3,657 7.1 -16.2°
Reaches altitude 10° 19:22:40 10° 203° (SSW) 2,710 6.5 -16.6°
Maximum altitude 19:28:49 63° 284° (WNW) 1,080 4.5 -17.6°
Drops below altitude 10° 19:34:59 10° 5° (N) 2,719 6.4 -18.5°
Sets 19:37:33 0° 9° (N) 3,670 7.1 -18.9°
